Погода в Эргли

Латвия     56°53′51″N   25°38′18″E
темп.,
°C
ветер,
м/с
пор.,
м/с
влажн.,
%
обл.,
%
осадки,
мм/ч
давл.,
гПа
погр.,
м
15 августа, пн
пн1500:00+18в2677100 0.0 1018100
03:00+18в287893 0.0 1017189
06:00+17вюв279399 0.0 1017141
09:00+22юв367185 0.0 1017357
12:00+25юв4659100 0.0 1017977
15:00+27юв4648100 0.0 10161389
18:00+26юв365594 0.0 10151216
21:00+22юв277387 0.0 1015160
16 августа, вт
вт1600:00+19вюв398486 0.0 1016190
03:00+18юв298930 0.0 1016175
06:00+17вюв269194 0.0 1016110
09:00+22юв486839 0.0 1016366
12:00+27юв464916 0.0 1016976
15:00+28юв344599 0.0 10151524
18:00+27юв355277 0.0 10151359
21:00+21ююв237444 0.0 101657
17 августа, ср
ср1700:00+17юв299397 1.0 1017196
03:00+16вюв24945 1.0 101671
06:00+15вюв26958 0.0 1016114
09:00+20юв36815 0.0 1016294
12:00+26юв354910 0.0 1016930
15:00+22вюв257265 0.0 1016240
18:00+25в35547 0.0 1016478
21:00+20в227545 0.0 101628
18 августа, чт
чт1800:00+18вюв24785 0.0 101765
03:00+18юв12707 0.0 101712
06:00+17в227111 0.0 101723
09:00+21в246092 0.0 1017191
12:00+27вюв23471 0.0 1017939
15:00+29вюв23421 0.0 10171548
18:00+28вюв23485 0.0 10171525
21:00+22в227113 0.0 101717
19 августа, пт
пт1900:00+20в26775 0.0 1017102
03:00+18вюв25785 0.0 101787
06:00+18вюв25795 0.0 101874
09:00+23вюв35615 0.0 1018224
12:00+28вюв47455 0.0 10181119
15:00+29вюв46374 0.0 10172091
18:00+28вюв36390 0.0 10171575
21:00+21всв38640 0.0 1017133